Regional Weather Roundup
Issued by NWS

Home | Current Version | Previous Version | Text Only | Print | Product List | Glossary On
Versions: 1 2 3 4 5 6 7 8 9 10 11 12 13 14 15 16 17 18 19 20 21 22 23 24 25 26 27 28 29 30 31 32 33 34 35 36 37 38 39 40 41 42 43 44 45 46 47 48 49 50
873
ASUS44 KOUN 300910
RWROK

WEATHER ROUNDUP FOR OKLAHOMA
NATIONAL WEATHER SERVICE NORMAN OK
400 AM CDT THU MAR 30 2017

NOTE: "FAIR" INDICATES FEW OR NO CLOUDS BELOW 12,000 FEET WITH NO
      SIGNIFICANT WEATHER AND/OR OBSTRUCTIONS TO VISIBILITY.

OKZ001>007-009>012-014-015-017-301000-
NORTHWEST OKLAHOMA AND THE PANHANDLE

CITY           SKY/WX    TMP DP  RH WIND       PRES   REMARKS
GAGE           MOCLDY    46  39  76 NW16G26   29.80F
GUYMON         CLEAR     38  36  92 W10       29.87F WCI  31
ENID/WOODRING  CLOUDY    45  39  81 NW20G28   29.71S
$$

OKZ016-021>023-033>039-044-045-301000-
SOUTHWEST OKLAHOMA

CITY           SKY/WX    TMP DP  RH WIND       PRES   REMARKS
LAWTON/REGL    CLOUDY    49  43  80 W12       29.82S
LAWTON/FT SILL CLOUDY    51  42  71 NW9       29.80F
FREDERICK      MOCLDY    49  43  80 W15       29.81F
CLINTON        MOCLDY    47  40  76 NW17      29.80F
HOBART         MOCLDY    48  43  82 W10       29.82F
ALTUS AFB      CLEAR     48  41  76 W15       29.83F
$$

OKZ018>020-024>031-301000-
CENTRAL OKLAHOMA

CITY           SKY/WX    TMP DP  RH WIND       PRES   REMARKS
OKLAHOMA CITY  CLOUDY    45  39  79 W17       29.75S
OKC/WILEY POST CLOUDY    47  40  76 W14       29.75F
OKC/TINKER AFB CLOUDY    46  39  76 W13       29.73F
STILLWATER     CLOUDY    46  39  76 W13       29.70F
GUTHRIE        CLOUDY    46  40  79 W18G25    29.73F
$$

OKZ008-013-054>072-301000-
NORTHEAST OKLAHOMA

CITY           SKY/WX    TMP DP  RH WIND       PRES   REMARKS
TULSA          CLOUDY    49  42  77 W16       29.67F
TULSA/JONES    CLOUDY    49  40  71 W5        29.69F
PONCA CITY     CLOUDY    45  41  86 W9G18     29.66F
BARTLESVILLE   CLOUDY    47  42  83 W8        29.65F
MUSKOGEE       CLOUDY    49  41  74 W9G20     29.72F
$$

OKZ032-040>043-046>053-073>077-301000-
SOUTH CENTRAL/SOUTHEAST OKLAHOMA

CITY           SKY/WX    TMP DP  RH WIND       PRES   REMARKS
ARDMORE/DWNTWN CLOUDY    48  41  76 NW5       29.80S
MCALESTER      CLOUDY    49  41  74 SW7       29.74F
$$





USA.gov is the U.S. government's official web portal to all federal, state and local government web resources and services.